Location: C�mpuri de-Sus
(45.9500°N, 22.5500°E)
Time: 13:31:31
(UTC+00:00)

Cosmos 2219 Rocket - Pass Details

Date: 24 October 2021
Orbit: 826 x 848 km, 71.0° (Epoch: 07 December)

Event Time Altitude Azimuth Distance (km) Brightness Sun altitude
Rises 18:11:10 0° 202° (SSW) 3,352 5.4 -28.8°
Reaches altitude 10° 18:13:35 10° 202° (SSW) 2,424 4.6 -29.3°
Enters shadow 18:15:52 26° 201° (SSW) 1,584 3.6 -29.6°
